This demonstration page uses our WeatherBlox Daily Observations layout. Learn more.

Left ArrowRight Arrow

Hourly Observations for July 27, 2021

Temp ( °F °C ) Dew Point ( °F °C ) Humidity (%) Winds ( mph kmh ) Pressure ( in mb ) Visibility ( mi km ) Precip ( " mm )
12:53 am 00:53 Clear 71 21.7 41 5 34 34 E 5 7 29.81 1010 10 16 0.00 0.00
1:53 am 01:53 Clear 70 21.1 41 5 35 35 NE 6 9 29.81 1009 10 16 0.00 0.00
2:53 am 02:53 Clear 67 19.4 42 5.6 41 41 Calm 29.80 1009 10 16 0.00 0.00
3:53 am 03:53 Clear 62 16.7 42 5.6 48 48 ESE 5 7 29.80 1009 10 16 0.00 0.00
4:53 am 04:53 Clear 60 15.6 40 4.4 47 47 WNW 9 15 29.82 1010 10 16 0.00 0.00
5:53 am 05:53 Sunny 63 17.2 43 6.1 48 48 SSW 6 9 29.82 1010 10 16 0.00 0.00
6:53 am 06:53 Sunny 64 17.8 43 6.1 46 46 Calm 29.82 1010 10 16 0.00 0.00
7:53 am 07:53 Sunny 69 20.6 44 6.7 41 41 WSW 3 6 29.83 1010 10 16 0.00 0.00
8:53 am 08:53 Sunny 76 24.4 41 5 29 29 WSW 7 11 29.85 1011 10 16 0.00 0.00
9:53 am 09:53 Sunny 80 26.7 40 4.4 24 24 WSW 9 15 29.85 1011 10 16 0.00 0.00
10:53 am 10:53 Sunny 88 31.1 37 2.8 16 16 W 7 11 29.84 1011 10 16 0.00 0.00
11:53 am 11:53 Sunny 90 32.2 34 1.1 14 14 NNE 3 6 29.84 1011 10 16 0.00 0.00
12:53 pm 12:53 Sunny 95 35 35 1.7 12 12 WNW 8 13 29.83 1010 10 16 0.00 0.00
1:53 pm 13:53 Sunny 97 36.1 35 1.7 11 11 VRB 5 7 29.83 1010 10 16 0.00 0.00
2:53 pm 14:53 Sunny 100 37.8 35 1.7 10 10 W 12 19 29.82 1010 10 16 0.00 0.00
3:53 pm 15:53 Sunny 101 38.3 34 1.1 10 10 N 14 22 29.82 1010 10 16 0.00 0.00
4:53 pm 16:53 Sunny 99 37.2 36 2.2 11 11 NNW 12 19 29.83 1010 10 16 0.00 0.00
5:53 pm 17:53 Sunny 95 35 37 2.8 13 13 N 16 26 29.85 1011 8 13 0.00 0.00
6:53 pm 18:53 Hazy 92 33.3 35 1.7 13 13 N 15 24 29.85 1011 6 10 0.00 0.00
7:53 pm 19:53 Sunny 91 32.8 33 0.6 13 13 NNW 9 15 29.85 1011 7 11 0.00 0.00
8:53 pm 20:53 Hazy 87 30.6 34 1.1 15 15 N 6 9 29.88 1012 6 10 0.00 0.00
9:53 pm 21:53 Clear 86 30 39 3.9 19 19 N 7 11 29.92 1013 7 11 0.00 0.00
10:53 pm 22:53 Mostly Clear 83 28.3 49 9.4 31 31 ESE 6 9 30.03 1017 9 14 0.00 0.00
11:53 pm 23:53 Clear 80 26.7 50 10 35 35 NE 8 13 29.96 1014 10 16 0.00 0.00

Powered by AerisWeather